CAPE
1355 979 927 1664 634 374 349 500 572 595 216 229 0 32 283 379 412 67 491 254 14 330 582 1178 2286 1911 1803 1695 1785 1968 1575 1484 1412 1385 1410 1531 1575 1485 1372 1373 1412 1624 1558 1608 1089 962 1814 1580 1960
1280 1083 2025 1425 77 182 242 183 429 510 248 263 143 370 570 976 806 487 269 367 30 726 468 875 2295 2343 2093 2144 1649 1963 1776 1578 1533 1432 1372 1409 1421 1438 1395 1470 1421 1576 1719 1628 1604 1407 1274 1777 1880
1384 2138 1797 333 109 96 116 130 387 276 232 134 213 563 772 811 382 258 500 356 502 934 318 986 2135 2294 2122 1917 2087 1590 1928 1981 1842 1579 1569 1798 1413 1413 1600 1724 1669 1704 1617 1453 1634 1702 1462 1228 1289
2352 2468 60 193 176 88 151 316 355 246 74 130 315 606 503 574 290 526 567 539 762 422 438 1790 1859 1971 2271 2010 1814 2128 1884 1685 1414 1705 1684 1714 1588 1103 1625 1766 1815 1602 1621 1538 1490 1671 1506 1444 1281
2149 70 220 183 125 68 75 254 623 524 90 173 213 201 275 663 684 659 646 792 1026 493 653 1636 2641 2184 2344 2106 938 1578 1994 1580 1654 1988 2019 1746 1671 1763 1855 1387 1704 1560 1653 1504 1473 1503 1500 1439 1084
835 33 210 113 108 134 247 325 571 223 267 278 116 266 721 717 889 858 766 931 1184 658 916 1699 2363 2275 2071 1855 1450 2085 2122 2014 1848 1645 1350 1414 1672 1516 1872 1795 1555 1380 1444 1436 1569 1381 1559 1243 985
594 204 189 172 182 81 211 167 557 177 196 190 256 588 832 856 1053 977 869 1099 1301 874 1302 1444 1338 2162 1652 1927 1695 1746 1495 1505 1770 1426 1785 1790 1711 1682 1325 925 688 773 953 1221 1365 1648 1147 780 754
258 164 327 342 304 248 48 454 418 131 171 195 395 671 856 1044 944 863 991 1203 1307 1151 1591 1511 1842 1626 1596 1995 2412 2485 2005 2239 2068 1588 1651 1747 1866 1868 1657 1397 1060 1018 728 657 939 1339 1510 1388 1416
36 198 272 241 428 377 137 479 93 81 181 51 111 600 789 819 644 736 959 1263 1522 1342 1317 1312 1609 1597 1711 2212 2046 1999 1872 1696 1646 1903 1888 1722 1884 1551 1391 1649 1225 409 379 1065 1007 872 854 928 1185
85 134 60 225 406 367 261 333 207 308 167 338 665 790 841 690 623 578 686 787 1003 1254 1406 1308 1395 1358 1416 1624 1983 2685 1832 988 1082 1283 1696 2262 1897 1493 1354 1033 467 423 505 248 341 1112 1291 1378 595
0 31 2 45 398 194 207 57 252 573 364 313 742 928 891 815 513 393 443 333 453 781 972 1230 1553 1791 1361 1335 1748 2277 2065 1582 1208 2329 2214 2224 1166 1679 1329 1834 273 617 629 789 169 232 316 376 1208
0 0 45 305 317 157 85 80 401 570 577 285 812 1007 958 802 423 205 228 268 424 794 756 1040 1309 2076 1784 1169 1782 2272 1960 1707 1585 1381 2381 1986 1429 1046 1011 801 1097 1263 1296 292 362 213 193 216 257
0 11 262 260 94 88 114 290 449 586 138 473 943 1007 919 767 432 114 135 383 559 582 702 929 1338 1867 2269 1908 1224 1652 1906 1707 1247 1439 1532 1499 1188 845 1032 1178 852 1175 403 146 37 38 64 258 247
0 284 274 116 162 259 302 526 636 460 412 773 992 938 857 788 735 599 699 1055 1014 665 433 499 990 1308 1598 1825 1425 1099 1263 1216 1404 1063 995 1313 1324 1078 1158 1334 1106 591 139 133 91 313 370 452 250
0 19 196 242 178 178 420 536 674 376 445 735 867 841 753 740 827 957 998 1056 1054 940 429 388 899 1075 1380 1521 1491 1076 947 684 807 1080 1338 1230 1150 1163 1482 1499 1535 1486 1364 724 104 72 415 636 672
0 0 0 17 219 287 150 370 313 365 296 627 615 708 684 703 696 764 835 875 595 673 360 496 528 880 1169 1155 1125 913 836 785 851 875 1242 1449 1500 1543 1578 1522 1506 1431 1250 996 725 647 755 770 719
0 0 0 0 302 390 390 466 431 512 187 226 382 539 567 657 608 611 629 772 859 341 331 508 524 387 710 972 894 784 866 1155 1301 1273 1211 1518 1605 1490 1526 1456 1164 1185 865 760 954 831 866 648 416
0 0 0 0 23 358 403 471 470 466 310 210 123 130 237 432 480 462 500 586 760 909 812 868 908 1071 1191 1014 1125 1150 1310 1318 1273 1300 1311 1313 1343 1591 936 1089 1524 1416 679 1074 827 660 827 653 931
0 0 0 0 0 7 233 359 345 638 583 397 223 195 150 83 29 56 292 411 689 957 1105 766 1019 1191 1102 1038 796 1054 1309 1846 1704 1800 2168 2072 1791 1225 1718 1190 1353 1391 901 1068 915 1017 1190 1199 1121
0 0 0 0 0 7 68 97 88 437 644 609 482 334 297 237 344 339 194 83 473 870 961 1102 838 925 997 1026 1151 1350 1629 1961 1982 2237 2041 1611 1389 1673 1185 1255 1170 1403 1225 1198 1148 1189 1086 942 942
0 0 0 0 0 0 0 93 36 504 620 544 400 507 402 390 349 351 516 178 203 460 785 899 1106 1029 956 1042 1466 1913 2118 1750 1803 1753 1537 1341 1486 1300 1437 1349 1299 1058 1063 864 1074 1033 916 752 730
0 0 0 0 0 0 0 99 197 41 405 761 550 377 539 638 627 742 801 488 272 332 511 817 1038 1104 1207 1397 1520 2078 2931 2806 2486 1478 1224 1598 1458 1312 1426 1627 1044 849 564 652 650 892 936 918 442
0 0 0 0 0 0 0 15 56 47 272 470 769 727 506 741 740 821 790 640 402 345 463 648 949 1195 1508 1653 1935 1969 2304 2343 1843 1990 1771 1410 1474 1568 1408 1053 678 630 274 472 618 330 450 490 274
0 0 0 0 0 26 4 4 74 47 186 300 487 660 757 594 600 543 701 738 674 427 534 673 948 1269 1490 2165 2138 2386 2396 2608 2176 1803 1902 1592 1174 660 582 504 336 211 165 300 0 6 37 88 203
0 0 0 0 0 47 0 0 130 68 1 16 63 434 558 620 579 480 357 514 898 667 575 700 973 1071 1068 1198 2337 2564 2629 2475 2275 1982 1435 853 301 71 369 187 129 103 540 9 0 0 0 0 0
0 0 0 0 6 45 0 11 27 4 0 0 1 188 565 572 560 532 433 530 913 901 726 744 927 1155 1232 1083 1571 2656 2714 2323 1866 1485 716 289 102 347 500 223 149 228 289 0 0 0 0 0 0
0 0 0 0 0 0 0 3 6 0 28 5 0 26 566 663 539 536 466 658 826 1035 979 964 1054 1234 1510 1376 1584 2292 2572 2291 1561 907 547 336 643 676 576 298 161 236 103 0 0 0 0 0 0
0 0 0 0 0 0 9 34 62 284 212 81 44 40 157 707 560 421 547 817 872 988 1132 1147 1199 1441 1820 1776 1599 2369 2658 2216 1568 764 517 610 838 1028 720 448 260 344 250 0 0 0 0 0 0
0 0 0 0 0 0 0 1 190 311 298 90 43 251 199 399 565 303 473 871 1441 1483 1410 1449 1435 1568 2002 1867 2288 2749 2707 2017 1248 639 488 787 1090 1072 789 596 590 472 346 12 0 0 2 2 0
0 0 0 0 0 0 0 8 0 3 169 68 125 365 414 485 633 448 308 643 1430 1940 2061 2077 1758 1768 2107 2518 2870 2732 1939 1092 741 344 551 874 1010 792 738 672 413 126 25 2 1 3 8 2 0
CIN
-272 -305 -282 -148 -64 -26 -20 -12 -30 -32 -46 -73 0 -70 -57 -79 -55 -35 -133 -141 -141 -84 -38 -1 0 0 0 0 0 0 0 0 0 0 0 0 0 0 0 0 0 0 0 0 -4 -4 0 0 0
-309 -306 -144 -193 -55 -10 -16 -50 -35 -42 -78 -87 -91 -77 -59 -50 -107 -165 -170 -132 -160 -46 -60 -23 0 0 0 0 0 0 0 0 0 0 0 0 0 0 0 0 0 -2 0 0 0 0 -2 0 0
-321 -189 -156 -161 -97 -28 -24 -55 -44 -73 -73 -71 -81 -83 -76 -83 -178 -191 -143 -146 -71 -26 -70 -17 0 0 0 0 0 0 0 0 0 0 0 0 0 0 0 0 0 0 0 0 0 0 0 0 0
-209 -175 -417 -69 -61 -83 -64 -66 -51 -56 -101 -103 -89 -82 -147 -141 -179 -133 -136 -110 -37 -70 -50 0 0 0 0 0 0 0 0 0 0 0 0 0 0 0 0 -2 0 -1 -1 -1 0 0 0 0 0
-220 -325 -75 -72 -102 -125 -129 -101 -58 -35 -81 -97 -128 -164 -186 -121 -112 -114 -117 -64 -29 -63 -35 0 0 0 0 0 -13 0 0 0 0 0 0 0 0 0 0 0 0 0 0 0 -2 0 0 0 -2
-150 -152 -50 -62 -89 -119 -129 -123 -66 -65 -99 -130 -166 -146 -99 -117 -82 -77 -84 -41 -13 -58 -18 0 0 0 0 0 0 0 0 0 0 0 0 0 0 0 0 0 0 0 0 0 0 -2 -1 0 -4
-117 -91 -64 -97 -98 -126 -113 -154 -81 -84 -98 -116 -126 -93 -93 -93 -52 -57 -66 -31 -8 -29 -5 0 0 0 0 0 0 0 0 0 0 0 0 0 0 0 0 -11 -19 -11 -3 0 -1 0 -2 -9 -10
-191 -119 -92 -92 -79 -84 -172 -114 -141 -113 -124 -132 -103 -56 -68 -96 -94 -72 -38 -18 -8 -13 0 0 0 0 0 0 -1 0 0 0 0 0 0 0 0 0 0 -1 -5 -5 -10 -5 -1 0 0 0 0
-32 -62 -46 -60 -98 -94 -223 -127 -212 -198 -146 -180 -182 -88 -95 -152 -163 -113 -63 -24 0 -4 -8 -5 -3 -2 0 0 0 0 0 -2 -1 0 0 0 -5 -10 -2 -3 -5 -17 -18 0 0 0 0 0 0
-147 -82 -85 -114 -135 -131 -190 -163 -178 -151 -170 -190 -158 -162 -156 -165 -158 -152 -119 -118 -86 -45 -30 -25 -12 -12 -8 -3 0 0 0 -14 -8 -3 0 -1 -7 -28 -7 -6 -10 -10 -5 -9 -6 0 0 0 0
-2 -88 -23 -143 -154 -173 -176 -217 -206 -132 -131 -157 -144 -154 -130 -129 -152 -154 -137 -139 -147 -107 -81 -54 -19 -6 -20 -21 -5 0 0 -2 -7 0 0 0 -44 -12 -31 -6 -7 -7 -7 0 -2 -1 0 0 0
0 0 -179 -180 -216 -215 -191 -225 -184 -141 -121 -171 -169 -147 -138 -124 -152 -160 -143 -140 -139 -111 -97 -71 -38 -1 -7 -29 -6 0 0 -3 -9 -9 0 -1 -11 -51 -48 -14 -8 -3 -9 -43 -21 -5 -10 -5 -2
0 -60 -172 -242 -272 -249 -263 -208 -161 -140 -232 -204 -199 -161 -124 -108 -104 -149 -140 -124 -138 -149 -128 -88 -47 -12 0 -7 -31 -7 -2 -7 -17 -12 -10 -8 -21 -36 -33 -33 -19 -18 -59 -76 -82 -71 -49 -10 -5
0 -163 -205 -241 -217 -233 -183 -209 -184 -203 -245 -215 -194 -154 -121 -89 -91 -104 -110 -89 -100 -133 -149 -138 -111 -67 -30 -21 -35 -39 -30 -31 -26 -36 -35 -28 -24 -35 -34 -23 -29 -57 -107 -78 -71 -11 -4 -7 -26
0 -78 -128 -175 -209 -172 -182 -165 -123 -262 -284 -208 -188 -144 -113 -90 -93 -102 -81 -86 -101 -97 -125 -141 -120 -100 -71 -52 -42 -51 -57 -47 -52 -47 -48 -57 -59 -47 -26 -19 -13 -6 -5 -13 -62 -74 -13 -11 -10
0 0 0 -120 -163 -224 -150 -37 -163 -297 -297 -226 -211 -181 -140 -120 -114 -106 -93 -87 -172 -123 -222 -148 -134 -114 -102 -101 -91 -73 -68 -57 -48 -47 -46 -53 -54 -45 -30 -24 -14 -7 -5 0 -1 -8 -2 -5 -4
0 0 0 0 -157 -158 -117 -66 -226 -300 -272 -293 -270 -214 -159 -120 -138 -117 -124 -96 -61 -195 -249 -199 -138 -113 -121 -127 -108 -89 -71 -44 -28 -27 -30 -34 -35 -44 -33 -18 -22 -16 -11 -1 0 0 0 -3 -16
0 0 0 0 -29 -138 -110 -94 -213 -298 -275 -284 -305 -300 -264 -174 -135 -137 -139 -122 -85 -76 -143 -153 -113 -102 -110 -104 -97 -73 -49 -35 -31 -34 -28 -36 -75 -36 -47 -28 -10 -8 -22 0 0 0 0 -2 0
0 0 0 0 0 -21 -81 -77 -76 -240 -291 -294 -300 -325 -296 -263 -253 -246 -198 -148 -119 -103 -96 -151 -125 -129 -121 -114 -85 -59 -40 -23 -25 -20 -23 -27 -29 -39 -19 -25 -12 -6 -15 -1 0 0 0 -1 0
0 0 0 0 0 -25 -136 -93 -149 -218 -271 -270 -252 -258 -268 -283 -253 -215 -245 -262 -162 -130 -157 -130 -154 -149 -139 -92 -75 -49 -38 -32 -33 -32 -35 -49 -41 -25 -36 -23 -12 -4 -1 -1 0 0 0 0 0
0 0 0 0 0 0 0 -88 -177 -250 -329 -347 -352 -253 -245 -247 -216 -179 -193 -264 -250 -191 -190 -179 -154 -143 -136 -123 -72 -35 -43 -62 -41 -41 -54 -55 -35 -39 -30 -22 -11 -6 0 0 0 0 0 0 0
0 0 0 0 0 0 0 -44 -79 -292 -253 -361 -335 -319 -264 -255 -201 -153 -130 -212 -239 -225 -212 -201 -178 -146 -117 -106 -67 -36 -10 -4 -18 -30 -68 -49 -42 -36 -23 -7 -11 -7 -2 -1 0 0 0 0 0
0 0 0 0 0 0 -3 -73 -44 -292 -60 -106 -287 -261 -267 -257 -176 -193 -181 -195 -222 -245 -243 -228 -197 -149 -115 -103 -52 -25 -22 -29 -31 -31 -42 -54 -37 -18 -12 -12 -9 -3 -3 -2 0 -6 -1 0 -4
0 0 0 0 0 -38 -17 -61 -27 -52 -63 -84 -232 -252 -231 -268 -291 -261 -205 -209 -255 -286 -280 -242 -218 -175 -137 -65 -38 -18 -21 -10 -31 -28 -17 -22 -28 -38 -41 -29 -32 -31 -25 -8 0 -114 -130 -57 -26
0 0 0 0 0 -47 0 0 -35 -71 -71 -87 -184 -206 -258 -233 -287 -292 -314 -261 -248 -283 -293 -264 -247 -212 -194 -146 -27 -14 -11 -18 -20 -19 -22 -34 -51 -74 -47 -57 -60 -47 -2 -32 0 0 0 0 0
0 0 0 0 -74 -37 0 -39 -99 -14 0 0 -21 -266 -252 -278 -276 -283 -288 -283 -253 -257 -298 -279 -255 -194 -187 -186 -109 -9 -9 -17 -21 -40 -40 -69 -82 -44 -46 -55 -50 -20 -10 0 0 0 0 0 0
0 0 0 0 0 0 0 -7 -11 0 -170 -23 0 -321 -228 -230 -295 -295 -279 -266 -270 -275 -251 -244 -244 -194 -144 -159 -116 -28 -8 -24 -50 -73 -69 -79 -41 -26 -37 -56 -61 -16 -22 0 0 0 0 0 0
0 0 0 0 0 0 -30 -78 -59 -36 -35 -63 -142 -206 -167 -215 -322 -308 -290 -265 -282 -239 -240 -223 -211 -190 -125 -106 -107 -26 -9 -24 -31 -92 -87 -58 -31 -14 -23 -27 -32 -6 -5 0 0 0 0 0 0
0 0 0 0 0 0 0 -28 -70 -44 -41 -116 -150 -174 -230 -228 -310 -342 -322 -293 -238 -232 -228 -215 -208 -167 -110 -109 -49 -3 -5 -20 -66 -74 -63 -32 -18 -13 -9 -6 -1 -1 0 -25 0 0 0 0 0
0 0 0 0 0 0 0 -94 0 -35 -138 -226 -184 -186 -268 -305 -303 -352 -322 -342 -244 -223 -191 -162 -166 -130 -94 -56 -26 -7 -44 -69 -81 -90 -43 -25 -19 -19 -10 -4 -5 -25 -29 0 0 0 0 0 0
Wind_Speed
16 10 4 3 1 3 3 4 2 6 6 2 10 3 4 4 1 4 7 9 18 17 15 14 11 13 12 13 12 13 14 13 12 11 11 11 10 10 9 7 7 6 6 6 8 6 5 7 8
11 9 2 0 2 4 3 3 6 4 4 11 10 8 3 4 4 9 13 13 19 16 15 15 11 13 11 13 13 12 14 13 12 11 10 10 10 9 8 8 6 6 7 6 8 8 7 7 6
11 2 1 3 2 3 3 2 7 12 8 5 5 6 3 4 5 16 9 19 17 15 13 13 13 13 13 11 12 12 12 12 11 10 9 10 10 7 7 8 7 6 6 6 6 7 7 6 5
4 3 2 3 4 2 1 4 4 6 7 5 9 7 5 6 12 6 18 18 16 15 14 14 14 13 13 12 10 11 11 10 9 8 9 7 11 8 7 6 7 5 6 7 5 8 6 6 6
2 2 3 3 3 3 2 1 6 4 4 5 2 6 8 4 10 16 18 15 16 15 13 14 14 12 13 13 11 10 9 10 9 9 9 9 8 7 6 7 5 4 5 5 4 5 5 5 5
1 1 1 2 2 2 4 2 2 4 4 7 9 9 5 6 13 15 16 14 14 14 13 12 14 12 13 11 11 8 11 8 7 8 7 5 7 6 7 5 5 4 2 4 5 6 5 4 3
1 0 1 2 1 4 1 4 2 5 6 6 11 6 4 9 11 14 15 13 13 13 12 11 12 11 12 10 10 10 9 8 8 8 7 6 6 6 6 5 4 3 2 1 2 4 5 4 2
1 1 1 2 2 3 2 3 5 6 3 13 7 6 8 13 15 14 13 13 13 12 11 11 10 10 10 9 11 11 10 9 9 6 4 4 4 5 5 4 5 5 5 4 4 3 3 4 4
2 0 2 3 2 1 5 4 3 3 11 3 2 6 11 20 17 15 14 12 12 11 12 12 11 11 9 8 10 9 8 6 5 4 5 5 2 4 5 5 6 6 6 6 6 6 6 6 7
2 1 3 4 4 1 8 4 7 5 10 4 10 12 21 20 18 18 16 15 15 15 14 12 11 11 10 7 7 7 6 5 4 4 4 1 5 3 4 3 5 7 7 6 6 8 7 9 4
1 2 3 4 4 8 9 6 4 8 8 8 13 20 19 19 17 17 17 15 16 14 12 12 12 10 11 8 6 4 4 4 4 6 6 4 1 3 3 2 4 4 6 5 4 5 6 7 6
4 4 4 2 6 6 8 8 4 6 3 5 18 22 21 19 18 18 17 15 13 13 12 12 12 10 10 7 6 6 5 5 4 5 6 5 4 2 3 4 5 5 2 3 5 5 6 9 10
2 7 4 5 9 8 9 5 1 6 7 15 19 19 19 17 16 14 12 12 13 14 13 12 12 11 10 9 7 6 6 5 5 5 7 6 6 6 5 3 5 4 1 2 2 4 8 7 8
3 5 4 5 6 5 5 3 1 4 12 16 19 19 18 18 17 14 14 12 12 12 14 14 14 13 12 10 9 6 6 6 6 6 6 8 7 6 6 6 4 4 3 3 4 6 7 8 7
3 1 5 6 2 2 4 2 5 12 14 15 15 17 16 16 16 17 14 13 13 12 12 15 14 14 13 12 9 7 6 6 6 6 8 9 9 8 7 6 6 6 5 7 4 5 8 8 7
2 3 4 2 3 3 2 6 4 13 16 14 13 14 14 17 18 16 15 14 10 11 11 14 13 14 14 12 9 7 7 6 6 6 6 7 7 7 7 6 5 5 5 5 5 5 5 6 7
6 3 6 4 6 2 4 4 2 9 14 14 13 14 14 14 15 16 16 15 14 10 7 13 14 14 14 11 8 8 7 6 6 6 6 5 5 5 6 5 4 4 4 4 4 4 5 4 4
2 2 3 6 1 9 8 16 4 10 15 16 15 14 14 15 19 16 17 16 15 15 13 10 12 12 11 6 6 5 5 6 6 7 6 7 3 5 4 3 2 1 2 3 3 5 3 5 5
6 2 3 6 0 5 13 18 6 13 14 15 16 16 16 16 13 15 16 16 16 16 15 15 11 11 9 7 7 6 7 5 5 6 6 4 3 4 4 1 0 1 2 3 4 3 4 3 3
4 2 3 4 8 3 4 13 4 12 16 17 17 18 18 16 14 13 13 16 18 18 16 14 13 9 9 7 5 4 4 3 4 2 4 5 5 5 3 1 1 1 2 3 3 4 3 2 2
4 6 4 4 6 6 4 6 2 2 10 13 15 15 17 18 18 16 14 15 16 17 17 16 14 12 9 9 6 5 2 1 3 3 4 5 5 4 3 2 2 1 1 2 3 3 4 4 2
12 3 4 4 4 4 3 5 6 2 7 12 16 18 17 19 17 15 14 14 16 16 14 14 13 12 9 11 10 10 5 4 2 3 3 4 5 4 3 4 3 3 3 4 4 4 3 3 4
5 2 4 3 3 4 4 5 3 3 9 8 17 20 20 17 17 17 16 14 14 13 13 13 13 11 12 13 11 8 5 2 3 3 5 4 4 3 5 4 3 2 3 3 4 6 5 3 2
5 4 2 2 1 6 2 4 4 4 6 7 4 17 19 17 17 16 14 12 12 11 12 13 14 13 11 11 11 9 8 6 5 4 4 5 5 4 4 4 3 3 3 4 4 4 5 5 4
5 7 6 7 6 6 3 5 9 8 10 11 13 7 17 17 16 15 14 13 13 15 14 14 14 13 11 11 10 10 7 7 7 8 6 8 5 4 4 2 2 3 3 4 4 5 5 5 4
9 10 7 9 8 4 3 5 6 5 6 8 9 9 8 14 14 15 14 14 15 15 15 15 16 13 11 12 11 8 8 6 6 8 7 6 5 5 4 3 2 3 3 3 4 4 5 5 5
7 7 3 3 2 3 2 5 13 9 13 8 11 8 9 14 15 15 14 13 14 15 16 16 16 14 12 12 11 9 8 9 8 8 6 6 5 5 4 3 3 2 2 3 3 4 5 5 6
6 10 6 2 5 7 5 4 9 8 14 8 10 12 10 10 12 14 13 12 11 11 12 13 13 14 12 10 11 9 10 9 9 8 7 8 7 5 5 3 1 2 2 1 2 2 5 5 5
5 5 2 1 2 7 9 7 7 13 14 10 9 7 8 7 10 12 11 11 11 11 12 13 13 14 13 11 11 11 9 10 10 9 7 6 5 5 4 2 1 2 2 1 3 4 5 6 6
2 4 9 5 6 1 5 10 4 12 13 7 10 8 2 6 11 13 14 12 11 11 11 10 9 10 11 10 12 10 10 9 9 9 8 6 5 4 4 4 4 5 5 5 5 6 6 6 7
Wind_Direction
141 142 150 185 151 76 39 41 328 113 153 134 146 179 163 54 58 56 136 148 146 149 151 157 147 133 131 126 128 127 123 124 125 127 127 124 125 122 130 130 133 130 121 111 110 111 85 102 106
145 146 189 40 56 88 98 338 28 62 102 131 123 124 100 88 68 120 140 156 148 148 152 151 145 139 138 133 136 130 130 131 130 135 134 131 129 129 145 144 145 137 126 120 125 120 106 98 96
158 211 301 69 57 56 80 83 112 117 129 152 105 51 59 58 104 143 129 149 149 148 151 146 149 147 148 139 137 142 136 138 131 132 131 142 144 137 134 142 145 119 121 126 119 107 104 108 102
187 171 136 47 23 29 353 63 133 145 99 73 105 75 78 55 140 148 143 149 151 149 154 149 152 155 147 142 144 138 146 139 142 144 138 147 149 144 136 131 115 120 112 105 101 105 102 101 105
255 266 37 47 339 306 290 51 176 154 95 94 128 94 101 45 113 138 147 154 150 150 154 155 158 161 146 144 148 154 151 150 157 160 154 154 143 136 132 118 129 114 108 110 106 94 111 102 106
224 293 24 333 295 267 276 133 134 94 106 121 105 109 93 119 137 148 150 157 152 150 156 156 149 164 147 150 152 157 149 152 150 149 151 146 139 144 140 131 143 127 127 149 138 134 116 119 109
290 286 312 208 272 297 272 110 110 116 132 109 125 100 102 156 149 150 152 151 155 156 155 161 159 164 154 170 160 161 157 169 173 165 168 168 170 162 156 152 157 170 190 200 193 161 149 160 178
175 112 312 271 261 285 127 95 108 115 85 123 146 158 165 163 155 150 150 150 157 163 163 166 165 174 167 174 171 174 171 188 186 169 179 182 186 197 187 185 201 201 215 222 206 221 214 212 232
170 43 261 264 214 113 141 131 77 99 138 113 32 150 136 144 151 151 153 154 162 173 177 177 174 180 176 180 168 177 180 189 180 187 205 211 211 255 231 216 206 229 243 241 232 223 233 240 245
250 224 263 202 197 164 151 148 140 145 151 88 82 103 130 145 161 163 170 171 175 179 183 183 186 184 183 188 186 193 181 196 198 211 225 236 266 248 248 261 243 253 256 272 262 263 250 241 238
162 274 310 226 166 141 148 138 136 141 196 196 155 146 149 155 170 177 184 185 182 183 183 190 191 190 196 196 193 195 193 202 207 224 233 247 276 295 300 258 250 254 256 265 263 275 271 272 254
285 312 292 71 129 124 157 137 151 188 8 188 154 156 156 168 178 186 187 187 185 187 190 191 196 199 207 203 200 198 208 216 220 227 239 242 250 233 248 257 253 250 279 303 306 293 281 273 267
274 324 8 85 113 108 135 152 119 192 76 128 143 158 168 173 185 192 190 188 186 190 192 196 199 205 211 215 213 212 219 221 233 238 242 250 258 258 257 229 266 262 214 227 265 279 283 276 266
14 36 47 63 94 111 126 111 259 102 128 136 154 169 176 180 184 191 198 194 198 199 193 192 199 205 213 220 219 222 228 237 244 248 254 255 262 268 265 267 246 263 206 211 209 260 275 274 268
308 303 93 63 49 99 121 172 209 146 149 152 170 176 185 190 186 202 199 196 201 204 199 200 198 203 212 219 222 222 230 230 246 254 256 257 256 260 271 271 273 269 251 237 215 233 258 262 260
22 15 13 58 188 94 235 272 220 161 155 164 178 188 194 200 203 203 206 208 198 206 202 199 201 201 209 216 215 221 225 236 245 252 266 268 266 266 266 271 278 278 266 249 243 240 258 255 261
20 39 2 9 212 137 223 285 123 178 180 174 187 194 204 207 214 214 212 211 203 213 179 209 205 202 204 210 216 225 231 238 251 260 266 276 275 261 249 260 283 280 259 252 237 237 244 255 247
96 12 329 329 316 221 237 255 186 178 193 192 189 202 207 213 218 215 215 214 210 211 192 200 208 206 198 192 204 226 238 244 256 260 261 261 228 230 238 262 308 268 213 200 223 247 233 249 263
138 145 321 310 282 235 244 267 241 194 200 200 195 202 212 218 222 220 217 214 211 207 208 193 194 194 186 185 203 221 234 232 239 244 248 271 234 199 239 245 97 137 192 244 256 290 250 272 270
171 250 284 284 311 261 340 285 298 201 209 205 203 207 212 219 214 212 209 211 211 211 210 204 205 189 200 205 208 219 213 221 252 253 223 201 196 182 197 271 122 51 316 291 295 278 305 269 289
201 256 280 287 310 266 313 284 281 182 216 212 215 220 215 215 223 221 212 208 209 211 205 205 206 205 202 203 191 172 177 183 193 191 201 201 187 173 161 96 94 55 348 351 327 303 307 315 301
246 191 260 284 315 307 344 296 301 292 242 215 214 215 217 212 218 220 216 211 209 209 209 202 193 194 198 193 193 201 199 226 150 157 133 151 169 159 136 102 76 49 30 26 345 313 300 313 314
249 157 289 300 279 245 189 258 288 327 308 244 213 216 213 210 210 212 212 207 209 199 196 193 179 181 188 189 195 198 211 219 153 133 138 137 144 127 108 97 82 45 26 26 23 11 10 350 321
135 155 91 106 177 236 103 274 246 297 277 296 209 217 211 205 206 212 213 199 198 191 184 180 175 174 179 183 193 191 196 170 157 146 147 146 130 120 102 106 84 47 36 53 36 23 22 5 358
187 191 216 219 213 248 110 229 271 265 266 266 286 241 216 204 205 200 199 199 193 188 184 179 182 181 182 182 183 184 185 164 160 159 154 147 144 139 124 90 62 67 69 65 48 51 39 20 11
196 224 229 226 225 239 145 231 257 269 282 284 269 272 219 210 209 201 196 196 196 193 189 183 185 183 182 180 179 181 167 172 164 162 154 149 150 144 141 110 68 45 93 75 57 56 33 26 17
156 207 286 180 107 261 250 248 276 270 272 252 254 232 218 214 206 199 193 200 198 190 191 190 186 188 183 183 172 172 170 171 168 150 166 152 149 148 153 142 106 50 116 75 65 51 31 20 10
241 140 174 226 196 237 199 257 257 279 283 295 255 245 230 216 202 194 190 196 195 189 191 189 192 185 177 173 175 171 166 169 174 158 167 167 157 166 165 156 124 49 75 51 355 26 40 24 16
160 195 93 188 264 254 256 248 233 249 267 290 278 265 265 226 184 186 182 185 180 183 181 182 181 176 166 169 163 166 166 171 163 170 169 168 156 154 149 143 77 49 24 51 14 17 17 20 22
301 243 195 231 195 241 294 263 245 254 274 277 281 292 245 210 177 185 189 180 178 188 175 162 162 172 165 162 165 169 160 162 164 166 166 159 137 132 135 123 89 64 62 50 35 19 21 23 19